Wind_Speed
2 5 2 4 4 5 5 6 7 10 13 15 16 15 16 15 12 6 1 4 6 7 8 8 9 8 8 8 7 5 6 4 3 2 1 1 2 2 1 0 2 5 1
4 1 1 5 7 8 8 9 9 9 12 15 16 15 15 15 13 8 4 2 4 5 6 7 8 7 7 7 6 5 5 3 3 2 2 2 2 1 1 2 3 5 2
3 1 3 5 7 9 11 11 13 10 11 12 14 15 15 14 12 10 6 5 4 5 6 7 7 6 6 5 4 5 4 4 3 3 4 4 4 4 2 2 4 4 4
5 4 4 5 7 9 11 13 14 13 11 11 12 13 13 13 12 9 7 6 6 7 7 8 6 6 6 4 4 5 5 3 4 3 3 5 4 4 4 3 3 2 2
6 6 3 6 9 10 11 14 15 15 14 12 12 13 13 12 11 10 9 8 8 9 9 9 8 7 6 5 4 5 5 3 4 4 4 3 4 5 4 4 2 1 1
6 5 7 7 9 13 15 15 16 16 16 14 14 14 14 13 12 11 11 11 10 10 11 11 9 7 6 6 6 5 6 5 6 5 5 6 5 5 4 4 2 1 2
14 11 9 11 13 15 16 16 16 17 17 17 15 16 16 14 14 13 12 12 12 12 12 12 11 10 8 8 7 7 7 8 6 6 4 4 6 5 4 4 3 2 3
18 19 17 17 17 14 15 16 18 17 18 18 18 18 17 17 16 16 15 15 15 14 14 14 14 12 11 11 9 8 9 8 8 8 6 6 6 5 4 5 5 4 3
18 20 21 20 18 18 18 17 19 22 20 18 19 20 20 19 17 17 16 17 17 17 17 17 17 15 13 13 11 9 11 11 10 9 8 8 7 6 6 6 6 5 3
21 21 21 20 19 20 19 18 21 24 21 22 21 21 22 23 21 21 20 19 19 20 21 20 20 18 16 14 14 11 12 12 11 11 9 8 8 9 8 8 7 7 5
23 24 25 24 23 21 20 20 21 24 26 24 25 24 23 23 24 24 23 22 21 22 23 23 23 21 18 16 15 14 13 14 13 13 12 11 11 11 9 8 8 9 7
28 27 25 26 27 25 24 23 23 23 25 31 28 25 27 26 25 26 26 26 25 25 26 27 26 25 22 19 18 16 14 15 15 14 14 14 13 14 12 11 10 9 8
31 30 30 27 25 26 28 28 26 25 25 25 32 30 30 31 29 29 28 29 30 29 29 29 29 28 25 22 20 19 16 17 17 16 15 16 15 15 15 13 13 11 10
21 22 24 24 22 23 24 26 28 27 27 25 28 30 32 35 33 33 32 30 31 32 32 31 31 30 28 26 24 22 20 18 18 18 16 17 17 18 18 15 15 14 13
18 22 24 26 28 27 26 25 28 31 33 32 29 30 35 35 37 37 36 35 34 32 33 34 33 32 32 30 28 26 23 20 20 20 20 20 20 21 20 18 17 15 14
27 29 28 29 29 27 27 27 26 28 30 33 33 35 35 36 38 40 40 39 39 36 34 34 36 35 34 34 32 30 27 24 23 22 23 24 23 24 21 19 19 18 16
30 29 28 26 26 29 31 32 33 33 33 35 36 38 38 41 43 45 44 44 45 41 39 39 37 38 38 37 36 34 31 29 26 25 24 26 27 28 25 20 20 19 18
28 27 28 30 31 32 33 33 34 35 35 36 40 40 45 45 44 47 47 52 53 48 48 45 42 38 41 41 39 37 35 32 30 28 26 24 27 22 21 22 21 20 18
28 28 29 30 31 33 34 37 38 39 41 41 41 44 45 48 49 49 48 54 52 53 47 53 44 43 42 45 43 40 39 36 33 32 28 25 24 23 19 18 17 17 17
29 30 32 35 37 40 41 42 43 43 43 43 47 46 48 49 51 53 51 50 55 52 56 52 52 48 47 46 47 44 43 40 38 36 33 27 25 23 20 20 19 17 16
31 34 37 38 41 44 45 46 47 45 44 46 46 46 47 49 53 54 57 54 52 56 57 50 62 70 51 50 48 49 47 44 43 42 38 33 30 26 25 23 21 19 19
34 37 38 41 43 45 45 46 47 49 50 53 52 49 45 46 49 56 59 61 57 57 58 64 49 45 56 56 52 52 52 50 49 46 43 39 35 32 29 26 24 23 23
31 35 37 38 38 39 42 44 45 48 51 54 54 50 46 45 46 53 54 60 62 59 59 59 59 49 54 68 57 58 55 58 51 49 47 44 39 36 32 30 29 26 25
30 33 33 34 35 37 39 42 44 48 52 54 56 54 52 46 39 45 54 52 59 60 60 59 57 56 49 49 68 59 58 57 57 52 49 47 44 37 35 32 30 29 28
28 30 31 32 32 33 35 38 41 45 46 45 48 48 50 49 44 39 49 50 53 60 61 59 61 63 57 64 66 76 59 58 58 55 53 48 47 39 36 33 30 29 29
27 27 26 27 28 31 33 35 39 44 45 45 46 46 44 43 39 34 42 44 46 55 59 59 56 63 65 54 58 61 61 60 59 57 53 52 47 41 36 34 32 30 29
Wind_Direction
107 198 231 302 309 311 320 323 326 329 336 340 347 352 350 349 347 350 267 238 215 218 220 218 224 227 240 249 255 262 262 260 255 213 159 274 312 8 34 258 343 351 13
147 186 321 328 299 294 302 304 307 318 326 332 338 347 348 349 346 342 331 269 243 236 232 236 241 242 249 258 261 259 255 245 239 246 247 246 325 306 258 280 303 326 328
59 357 303 293 293 282 282 292 298 303 311 320 328 338 344 343 340 332 325 306 276 258 254 252 259 263 258 266 257 252 242 239 258 263 266 265 270 251 279 258 300 318 321
285 320 337 300 273 277 279 278 282 290 295 303 314 327 332 333 331 322 310 295 283 272 260 256 260 268 271 263 255 256 256 255 266 261 264 252 222 251 268 260 294 1 57
306 327 239 235 244 254 266 267 268 273 281 290 303 313 319 322 322 316 306 293 280 275 272 269 267 270 269 267 257 257 266 262 269 277 264 215 222 245 244 262 266 73 83
317 295 275 233 243 254 262 261 261 266 273 282 293 300 306 311 314 310 302 289 280 277 272 272 272 268 272 270 266 260 267 274 282 273 293 223 237 230 233 228 209 167 127
289 302 312 306 279 253 252 252 250 258 268 277 283 289 295 301 305 305 299 286 280 277 272 271 274 274 274 270 266 263 260 273 276 266 236 215 220 210 220 216 217 168 130
302 305 307 307 299 293 272 246 238 242 258 267 273 278 286 293 297 298 297 287 276 274 270 271 273 275 278 275 264 251 255 258 263 260 242 220 221 214 221 212 197 186 174
302 305 309 311 308 310 292 252 229 230 235 249 267 276 279 280 282 283 282 280 274 270 269 268 270 272 275 275 265 247 246 247 248 250 244 225 220 217 214 206 195 205 192
298 302 303 303 305 307 300 275 244 230 238 246 249 258 270 278 283 284 281 274 269 267 266 266 268 269 271 273 267 253 244 247 245 245 232 230 216 222 215 206 206 212 215
291 295 299 297 296 293 294 297 292 258 241 242 249 253 259 269 277 279 279 274 268 265 264 264 265 267 267 270 267 258 250 247 247 245 242 231 228 228 220 214 214 212 218
288 291 293 296 298 294 291 288 283 277 271 260 248 249 254 255 263 270 272 271 264 258 259 260 261 264 265 266 265 261 253 249 248 244 244 237 235 226 223 222 226 221 223
282 289 294 296 294 291 288 284 281 282 278 265 257 254 246 249 255 260 265 270 272 265 259 259 261 265 266 265 262 261 253 251 250 247 242 235 232 234 230 228 227 224 232
289 297 303 308 310 309 305 300 290 278 272 276 267 264 257 258 251 251 256 261 267 271 266 259 258 260 262 262 261 259 256 250 250 250 243 236 234 230 230 233 234 231 231
300 304 305 304 306 308 307 301 296 297 292 277 272 266 267 265 262 257 254 255 254 259 267 264 258 255 258 260 261 260 259 254 250 249 249 242 236 231 229 233 235 236 235
308 307 305 303 301 299 301 302 299 293 292 290 284 271 265 266 263 265 258 254 252 254 256 262 260 254 252 256 258 259 259 256 253 251 249 247 243 232 229 229 236 237 235
302 301 300 298 300 301 303 302 301 299 293 283 280 283 277 272 265 260 258 259 252 244 249 254 254 254 250 248 251 255 256 256 254 253 252 248 245 237 232 228 236 237 235
305 305 304 306 306 304 301 301 298 296 294 291 283 278 277 276 276 266 260 263 254 247 238 249 255 251 251 248 248 251 253 254 255 255 254 250 242 239 230 230 231 230 228
306 307 305 302 300 304 305 308 304 298 295 295 290 283 273 269 272 270 267 259 271 270 241 239 252 253 249 249 247 248 251 253 251 254 253 248 238 231 227 220 220 216 217
302 303 306 308 307 308 304 303 304 300 295 291 292 287 278 271 263 267 266 264 258 262 258 234 243 250 253 248 249 247 248 252 251 251 251 244 234 223 214 215 213 209 211
306 307 306 306 304 304 301 298 298 295 298 299 298 289 281 272 265 261 265 261 257 253 250 269 243 229 244 251 245 244 244 245 248 248 247 241 230 223 217 219 223 220 221
306 306 306 304 304 304 304 305 306 306 304 305 303 296 284 276 270 264 260 263 257 252 249 250 255 255 237 245 245 243 243 243 242 243 243 240 230 225 224 221 229 234 234
300 301 303 307 311 313 313 313 313 312 309 307 302 295 286 278 274 270 260 258 258 253 251 250 249 259 247 240 241 245 240 241 243 241 240 241 234 229 226 227 228 235 241
303 306 312 316 318 320 323 323 322 319 313 311 308 303 296 288 276 268 268 257 253 251 250 249 247 248 251 252 243 234 241 242 244 242 240 240 239 231 228 227 233 234 240
308 312 315 318 320 322 327 332 331 325 316 318 315 307 304 300 293 271 260 256 249 248 246 248 248 246 255 253 263 230 237 239 243 243 242 240 241 235 230 230 236 239 241
313 314 315 316 320 326 330 333 338 334 329 327 324 318 308 303 299 277 260 256 250 247 245 245 247 250 253 255 254 247 227 235 237 242 242 241 238 238 237 239 239 240 241
Height
3170 3170 3170 3170 3170 3170 3169 3169 3168 3168 3167 3166 3165 3163 3161 3159 3157 3157 3156 3156 3157 3157 3158 3159 3159 3160 3160 3160 3160 3159 3159 3159 3159 3159 3159 3158 3158 3158 3157 3157 3157 3157 3156
3169 3170 3170 3170 3171 3170 3170 3170 3169 3168 3167 3165 3164 3163 3161 3160 3159 3157 3157 3157 3156 3157 3158 3159 3159 3159 3159 3160 3160 3160 3159 3159 3158 3158 3158 3158 3157 3157 3157 3157 3157 3157 3157
3170 3169 3169 3169 3169 3169 3169 3170 3169 3168 3168 3166 3164 3163 3161 3161 3159 3159 3158 3157 3158 3157 3158 3159 3159 3160 3159 3160 3160 3160 3159 3159 3158 3158 3157 3157 3157 3157 3157 3156 3157 3156 3156
3169 3168 3168 3168 3169 3169 3168 3168 3169 3168 3167 3166 3165 3164 3162 3162 3160 3159 3158 3158 3158 3158 3158 3158 3160 3160 3159 3160 3159 3159 3158 3158 3158 3158 3158 3157 3156 3156 3157 3156 3156 3156 3156
3167 3166 3165 3165 3165 3166 3166 3166 3167 3167 3167 3166 3165 3164 3163 3162 3161 3160 3159 3158 3158 3158 3157 3158 3159 3160 3159 3159 3159 3159 3158 3158 3158 3157 3157 3156 3156 3156 3156 3156 3156 3156 3156
3164 3164 3164 3163 3162 3163 3163 3164 3165 3166 3166 3165 3164 3163 3163 3162 3161 3160 3159 3159 3158 3157 3156 3157 3158 3159 3158 3158 3158 3158 3157 3157 3157 3156 3156 3156 3156 3156 3156 3156 3156 3156 3156
3161 3162 3162 3162 3161 3160 3160 3161 3162 3163 3165 3164 3163 3163 3161 3161 3160 3160 3159 3158 3157 3157 3156 3156 3157 3158 3158 3157 3157 3157 3156 3155 3155 3154 3154 3154 3154 3154 3155 3155 3155 3155 3155
3161 3160 3160 3160 3159 3158 3157 3156 3158 3160 3161 3161 3161 3161 3160 3160 3159 3159 3158 3157 3156 3156 3155 3155 3155 3156 3157 3156 3156 3155 3155 3154 3153 3153 3153 3153 3153 3153 3153 3153 3153 3154 3154
3159 3159 3158 3158 3157 3156 3155 3152 3152 3154 3155 3157 3158 3159 3158 3158 3157 3157 3156 3156 3155 3155 3154 3154 3154 3155 3155 3154 3154 3154 3153 3153 3153 3152 3151 3151 3151 3151 3151 3152 3152 3152 3152
3156 3156 3156 3155 3155 3154 3153 3152 3150 3150 3150 3153 3153 3154 3155 3155 3156 3156 3155 3154 3154 3154 3153 3153 3152 3153 3153 3152 3152 3152 3152 3151 3151 3151 3150 3150 3150 3150 3150 3150 3150 3151 3151
3153 3153 3152 3152 3152 3152 3151 3151 3151 3149 3147 3147 3148 3149 3150 3151 3152 3153 3153 3152 3151 3151 3150 3150 3150 3150 3152 3151 3150 3150 3150 3149 3148 3149 3149 3149 3149 3149 3149 3148 3148 3149 3150
3148 3148 3148 3148 3147 3147 3147 3147 3146 3146 3145 3145 3143 3144 3146 3146 3146 3147 3148 3148 3147 3147 3147 3147 3147 3147 3148 3149 3148 3148 3148 3148 3147 3146 3146 3146 3147 3147 3147 3147 3147 3147 3147
3145 3144 3143 3143 3143 3142 3142 3142 3142 3141 3141 3141 3140 3139 3138 3138 3140 3141 3142 3143 3144 3143 3143 3143 3144 3144 3145 3146 3146 3145 3146 3146 3146 3145 3144 3144 3146 3146 3146 3145 3145 3145 3146
3142 3141 3139 3138 3138 3138 3137 3136 3135 3136 3136 3135 3136 3135 3134 3134 3133 3133 3135 3136 3137 3139 3139 3139 3139 3140 3140 3141 3142 3142 3143 3143 3143 3144 3143 3143 3143 3143 3144 3144 3144 3144 3143
3139 3138 3137 3135 3134 3133 3132 3132 3130 3128 3128 3129 3129 3129 3128 3127 3128 3128 3127 3128 3129 3131 3132 3134 3134 3134 3135 3136 3137 3138 3139 3140 3140 3141 3141 3141 3140 3140 3141 3143 3143 3142 3142
3134 3134 3133 3131 3129 3127 3126 3125 3124 3123 3122 3121 3121 3122 3121 3120 3119 3120 3120 3120 3120 3121 3123 3125 3126 3128 3129 3130 3131 3132 3134 3135 3136 3136 3137 3137 3137 3138 3138 3139 3140 3141 3141
3130 3128 3127 3126 3124 3121 3119 3117 3116 3115 3114 3114 3113 3111 3112 3111 3112 3111 3110 3112 3111 3109 3112 3115 3116 3119 3122 3124 3124 3125 3127 3129 3130 3131 3132 3133 3133 3134 3134 3134 3136 3138 3138
3123 3122 3120 3118 3116 3115 3114 3112 3110 3106 3104 3103 3103 3102 3100 3099 3099 3099 3100 3098 3097 3099 3098 3105 3109 3109 3114 3117 3119 3119 3120 3123 3125 3126 3126 3127 3129 3130 3130 3131 3132 3133 3134
3118 3116 3114 3112 3110 3108 3105 3103 3102 3100 3096 3094 3091 3089 3088 3087 3086 3084 3087 3088 3087 3077 3079 3094 3101 3100 3104 3110 3113 3115 3114 3117 3119 3120 3121 3122 3124 3125 3126 3127 3127 3128 3129
3112 3111 3108 3106 3103 3100 3098 3095 3092 3089 3087 3085 3081 3077 3075 3073 3073 3071 3072 3074 3078 3079 3071 3074 3088 3091 3095 3101 3105 3107 3107 3110 3112 3114 3115 3117 3119 3120 3122 3123 3124 3124 3126
3106 3104 3101 3099 3096 3093 3090 3087 3084 3079 3076 3071 3068 3065 3061 3058 3057 3058 3056 3060 3063 3067 3071 3067 3069 3070 3083 3092 3095 3095 3098 3100 3103 3106 3108 3110 3112 3115 3117 3118 3119 3120 3121
3100 3097 3095 3091 3088 3084 3079 3075 3071 3067 3063 3056 3053 3051 3048 3045 3044 3043 3043 3043 3048 3051 3054 3060 3054 3060 3068 3077 3080 3085 3086 3090 3092 3097 3099 3102 3106 3109 3111 3112 3114 3116 3117
3098 3095 3090 3085 3081 3075 3070 3065 3060 3055 3049 3042 3039 3036 3035 3033 3030 3027 3026 3028 3030 3035 3039 3044 3048 3046 3055 3059 3062 3070 3071 3073 3085 3088 3091 3095 3098 3102 3105 3107 3107 3110 3111
3092 3088 3083 3078 3073 3068 3062 3055 3049 3042 3036 3029 3023 3019 3016 3015 3015 3013 3011 3013 3015 3019 3023 3029 3035 3040 3043 3032 3050 3053 3063 3067 3070 3077 3082 3086 3090 3094 3098 3100 3102 3102 3105
3088 3083 3078 3073 3068 3064 3057 3050 3042 3036 3031 3024 3016 3008 3002 2997 2996 2997 2996 2997 3000 3004 3008 3015 3020 3026 3026 3031 3034 3042 3053 3057 3061 3065 3070 3077 3082 3085 3090 3092 3095 3096 3097
3082 3078 3074 3070 3065 3060 3053 3046 3038 3030 3023 3014 3005 2998 2992 2987 2983 2983 2982 2983 2986 2990 2995 3000 3007 3011 3014 3016 3020 3019 3035 3044 3048 3053 3060 3067 3072 3077 3082 3085 3087 3089 3090